Regional Weather Roundup
Issued by NWS

Home | Current Version | Previous Version | Graphics & Text | Print | Product List | Glossary On
Versions: 1 2 3 4 5 6 7 8 9 10 11 12 13 14 15 16 17 18 19 20 21 22 23 24 25 26 27 28 29 30 31 32 33 34 35 36 37 38 39 40 41 42 43 44 45 46 47 48 49 50
000
ASUS43 KTOP 092159
RWRKS

WEATHER ROUNDUP FOR KANSAS
NATIONAL WEATHER SERVICE GOODLAND KS
400 PM CST FRI DEC 09 2016

NOTE:  "FAIR" INDICATES FEW OR NO CLOUDS BELOW 12,000 FEET WITH NO
SIGNIFICANT WEATHER AND/OR OBSTRUCTIONS TO VISIBILITY.

KSZ001>006-013>018-027>032-041>047-092300-
NORTHWEST KANSAS

CITY           SKY/WX    TMP DP  RH WIND       PRES   REMARKS
GOODLAND       SUNNY     38  23  55 S7        30.18R
HAYS           SUNNY     30  14  51 S18       30.33S WCI  18
HILL CITY      SUNNY     33  15  47 S9        30.31R
RUSSELL        CLOUDY    28  11  48 S18       30.35R WCI  15
$$

KSZ061>065-074>080-084>089-092300-
SOUTHWEST KANSAS

CITY           SKY/WX    TMP DP  RH WIND       PRES   REMARKS
DODGE CITY     SUNNY     35  17  47 S17       30.28S WCI  25
ELKHART          N/A     44  23  43 S10         N/A
GARDEN CITY    SUNNY     37  21  52 S15       30.23R WCI  28
GREAT BEND     CLOUDY    27  13  55 S16       30.37  WCI  15
LIBERAL        SUNNY     41  23  48 SE16      30.23S
$$

KSZ066>073-081>083-090>101-092300-
SOUTHEAST KANSAS

CITY           SKY/WX    TMP DP  RH WIND       PRES   REMARKS
CHANUTE        CLOUDY    30  12  47 S10       30.51S WCI  21
COFFEYVILLE    CLOUDY    31  14  49 SE7       30.53F
HUTCHINSON     CLOUDY    28  11  48 S12       30.42R WCI  18
MEDICINE LODGE   N/A     29  11  47 S13       30.40S WCI  19
NEWTON         CLOUDY    27  13  55 S12       30.43S WCI  17
PARSONS        CLOUDY    30  13  49 SE7       30.53S
WICHITA INTL   CLOUDY    28  11  48 S13       30.44S WCI  17
WICHITA JABRA  CLOUDY    28  12  51 S12       30.44R WCI  18
WINFIELD       CLOUDY    29  12  49 SE13      30.47F WCI  19
$$

KSZ007>012-019>026-033>040-048>060-102>105-092300-
NORTHEAST KANSAS

CITY           SKY/WX    TMP DP  RH WIND       PRES   REMARKS
CONCORDIA      CLOUDY    25  14  63 S9        30.44R
EMPORIA        CLOUDY    28  11  48 SE10      30.47S WCI  19
LAWRENCE       CLOUDY    27  13  55 SE8       30.54R
MANHATTAN      CLOUDY    28  13  53 SE9       30.48R
OLATHE IND     CLOUDY    27  12  53 SE8       30.52F
OLATHE EXE     CLOUDY    25  11  55 SE7       30.52S
SALINA         CLOUDY    29  14  53 S12       30.45R WCI  19
TOPEKA BILLARD CLOUDY    28  12  51 SE8       30.52S
TOPEKA FORBES  CLOUDY    28  13  53 SE9       30.51R
$$




USA.gov is the U.S. government's official web portal to all federal, state and local government web resources and services.